Newport, Oregon, United States (97365)
Lat: 44.64N, Lon: 124.05W
Wx Zone: ORZ002
Local Info
Past Weather Observations for Today

NOTE: This archive is for the closest National Weather Service station to Newport. Information may differ from the station used for current weather conditions.

Click here for Long-term Archive

Time Weather Temperature Dewpoint Humidity Pressure Winds Precip Visibility
20:35
Mostly Cloudy
45°F / 7°C 41°F / 5°C 87% 30.12 in
(1020 mb)
E 3.5 mph
(E 6 kph)
- 10SM
20:15
Mostly Cloudy
43°F / 6°C 41°F / 5°C 93% 30.12 in
(1020 mb)
Calm - 10SM
19:55
Partly Cloudy
45°F / 7°C 41°F / 5°C 87% 30.12 in
(1020 mb)
Calm - 10SM
19:35
Clear
46°F / 8°C 43°F / 6°C 87% 30.12 in
(1020 mb)
Calm - 10SM
19:15
Clear
48°F / 9°C 43°F / 6°C 82% 30.12 in
(1020 mb)
Calm - 10SM
18:55
Clear
50°F / 10°C 43°F / 6°C 76% 30.12 in
(1020 mb)
Calm - 7SM
18:35
Clear
52°F / 11°C 43°F / 6°C 72% 30.12 in
(1020 mb)
Calm - 10SM
18:15
Clear
52°F / 11°C 43°F / 6°C 72% 30.09 in
(1019 mb)
W 4.6 mph
(W 7 kph)
- 10SM
17:55
Clear
52°F / 11°C 43°F / 6°C 72% 30.09 in
(1019 mb)
SSW 4.6 mph
(SSW 7 kph)
- 10SM
17:35
Clear
52°F / 11°C 43°F / 6°C 72% 30.09 in
(1019 mb)
WNW 4.6 mph
(WNW 7 kph)
- 10SM
17:15
Clear
54°F / 12°C 43°F / 6°C 67% 30.09 in
(1019 mb)
SSW 4.6 mph
(SSW 7 kph)
- 10SM
16:55
Clear
54°F / 12°C 43°F / 6°C 67% 30.09 in
(1019 mb)
W 4.6 mph
(W 7 kph)
- 10SM
16:35
Clear
54°F / 12°C 43°F / 6°C 67% 30.09 in
(1019 mb)
NW 5.8 mph
(NW 9 kph)
- 10SM
16:15
Clear
54°F / 12°C 43°F / 6°C 67% 30.09 in
(1019 mb)
NW 6.9 mph
(NW 11 kph)
- 10SM
15:55
Clear
54°F / 12°C 43°F / 6°C 67% 30.09 in
(1019 mb)
NW 6.9 mph
(NW 11 kph)
- 10SM
15:35
Clear
54°F / 12°C 43°F / 6°C 67% 30.09 in
(1019 mb)
WNW 5.8 mph
(WNW 9 kph)
- 10SM
15:15
Clear
54°F / 12°C 45°F / 7°C 72% 30.09 in
(1019 mb)
WNW 8.1 mph
(WNW 13 kph)
- 10SM
14:55
Clear
54°F / 12°C 45°F / 7°C 72% 30.09 in
(1019 mb)
NW 8.1 mph
(NW 13 kph)
- 10SM
14:35
Clear
54°F / 12°C 45°F / 7°C 72% 30.06 in
(1018 mb)
WNW 5.8 mph
(WNW 9 kph)
- 10SM
14:15
Clear
54°F / 12°C 45°F / 7°C 72% 30.06 in
(1018 mb)
SSW 6.9 mph
(SSW 11 kph)
- 10SM
13:55
Clear
52°F / 11°C 45°F / 7°C 77% 30.06 in
(1018 mb)
SSW 8.1 mph
(SSW 13 kph)
- 10SM
13:35
Clear
52°F / 11°C 43°F / 6°C 72% 30.06 in
(1018 mb)
SSW 8.1 mph
(SSW 13 kph)
- 10SM
13:15
Clear
54°F / 12°C 45°F / 7°C 72% 30.06 in
(1018 mb)
SSW 6.9 mph
(SSW 11 kph)
- 10SM
12:55
Clear
54°F / 12°C 45°F / 7°C 72% 30.06 in
(1018 mb)
SSW 6.9 mph
(SSW 11 kph)
- 10SM
12:35
Clear
52°F / 11°C 45°F / 7°C 77% 30.06 in
(1018 mb)
W 6.9 mph
(W 11 kph)
- 10SM
12:15
Clear
52°F / 11°C 45°F / 7°C 77% 30.06 in
(1018 mb)
SSW 6.9 mph
(SSW 11 kph)
- 10SM
11:55
Clear
52°F / 11°C 45°F / 7°C 77% 30.06 in
(1018 mb)
SSW 8.1 mph
(SSW 13 kph)
- 10SM
11:35
Clear
52°F / 11°C 45°F / 7°C 77% 30.06 in
(1018 mb)
NW 5.8 mph
(NW 9 kph)
- 10SM
11:15
Clear
52°F / 11°C 45°F / 7°C 77% 30.06 in
(1018 mb)
WNW 5.8 mph
(WNW 9 kph)
- 10SM
10:55
Clear
52°F / 11°C 46°F / 8°C 82% 30.06 in
(1018 mb)
NW 5.8 mph
(NW 9 kph)
- 10SM
10:35
Clear
52°F / 11°C 46°F / 8°C 82% 30.06 in
(1018 mb)
NW 8.1 mph
(NW 13 kph)
- 10SM
10:15
Clear
52°F / 11°C 46°F / 8°C 82% 30.06 in
(1018 mb)
NW 6.9 mph
(NW 11 kph)
- 10SM
09:55
Clear
50°F / 10°C 46°F / 8°C 88% 30.06 in
(1018 mb)
SSW 8.1 mph
(SSW 13 kph)
- 10SM
09:35
Clear
50°F / 10°C 46°F / 8°C 88% 30.04 in
(1017 mb)
SSW 6.9 mph
(SSW 11 kph)
- 7SM
09:15
Clear
50°F / 10°C 46°F / 8°C 88% 30.04 in
(1017 mb)
SW 6.9 mph
(SW 11 kph)
- 7SM
08:55
Clear
50°F / 10°C 46°F / 8°C 88% 30.04 in
(1017 mb)
SW 3.5 mph
(SW 6 kph)
- 7SM
08:35
Partly Cloudy
50°F / 10°C 45°F / 7°C 82% 30.04 in
(1017 mb)
SW 5.8 mph
(SW 9 kph)
- 7SM
08:15
Mostly Cloudy
50°F / 10°C 46°F / 8°C 88% 30.04 in
(1017 mb)
SW 4.6 mph
(SW 7 kph)
- 10SM
07:55
Clear
50°F / 10°C 46°F / 8°C 88% 30.01 in
(1016 mb)
Calm - 10SM
07:35
Clear
48°F / 9°C 46°F / 8°C 94% 30.01 in
(1016 mb)
Calm - 10SM
07:15
Clear
46°F / 8°C 46°F / 8°C 100% 30.01 in
(1016 mb)
Calm - 10SM
06:55
Clear
46°F / 8°C 45°F / 7°C 93% 30.01 in
(1016 mb)
Calm - 10SM
06:35
Clear
45°F / 7°C 45°F / 7°C 100% 30.01 in
(1016 mb)
Calm - 10SM
06:15
Clear
43°F / 6°C 43°F / 6°C 100% 30.01 in
(1016 mb)
Calm - 10SM
05:55
Clear
43°F / 6°C 41°F / 5°C 93% 30.01 in
(1016 mb)
Calm - 10SM
05:35
Clear
41°F / 5°C 41°F / 5°C 100% 29.98 in
(1015 mb)
Calm - 10SM
05:15
Partly Cloudy
43°F / 6°C 41°F / 5°C 93% 29.98 in
(1015 mb)
Calm - 10SM
04:55
Partly Cloudy
43°F / 6°C 43°F / 6°C 100% 29.98 in
(1015 mb)
SE 3.5 mph
(SE 6 kph)
- 10SM
04:35
Clear
43°F / 6°C 43°F / 6°C 100% 29.98 in
(1015 mb)
SE 4.6 mph
(SE 7 kph)
- 10SM
04:15
Partly Cloudy
45°F / 7°C 43°F / 6°C 93% 29.98 in
(1015 mb)
SE 3.5 mph
(SE 6 kph)
- 10SM
03:55
Overcast
Light Rain
45°F / 7°C 45°F / 7°C 100% 29.98 in
(1015 mb)
ENE 4.6 mph
(ENE 7 kph)
0.05 in
(1.27 mm)
7SM
03:35
Mostly Cloudy
Heavy Rain
45°F / 7°C 43°F / 6°C 93% 29.98 in
(1015 mb)
NNW 9.2 mph
(NNW 15 kph)
0.02 in
(0.51 mm)
4SM
03:15
Partly Cloudy
43°F / 6°C 43°F / 6°C 100% 29.98 in
(1015 mb)
Calm - 7SM
02:55
Partly Cloudy
43°F / 6°C 43°F / 6°C 100% 29.98 in
(1015 mb)
Calm - 7SM
02:35
Partly Cloudy
45°F / 7°C 43°F / 6°C 93% 29.95 in
(1014 mb)
Calm - 10SM
02:15
Partly Cloudy
45°F / 7°C 43°F / 6°C 93% 29.95 in
(1014 mb)
SSE 4.6 mph
(SSE 7 kph)
- 7SM
01:55
Mostly Cloudy
45°F / 7°C 43°F / 6°C 93% 29.95 in
(1014 mb)
Calm - 10SM
01:35
Mostly Cloudy
45°F / 7°C 45°F / 7°C 100% 29.95 in
(1014 mb)
Calm - 10SM
01:15
Mostly Cloudy
45°F / 7°C 45°F / 7°C 100% 29.95 in
(1014 mb)
SE 3.5 mph
(SE 6 kph)
- 7SM
00:55
Mostly Cloudy
45°F / 7°C 45°F / 7°C 100% 29.95 in
(1014 mb)
SE 3.5 mph
(SE 6 kph)
0.08 in
(2.03 mm)
7SM
00:35
Overcast
Fog And Mist
46°F / 8°C 45°F / 7°C 93% 29.98 in
(1015 mb)
E 3.5 mph
(E 6 kph)
0.08 in
(2.03 mm)
5SM
00:15
Overcast
Heavy Rain
46°F / 8°C 45°F / 7°C 93% 29.98 in
(1015 mb)
Calm 0.07 in
(1.78 mm)
2 1/2SM
Time Weather Temperature Dewpoint Humidity Pressure Winds Precip Visibility


Weather for websites

WeatherForYou.com, LLC is not responsible for any damages or problems caused by this service. Current weather conditions are obtained from the closest station including government and personal stations which may have varying degrees of accuracy. Weather forecasts are derived from the NOAA NDFD. Like all things, this site belongs to Jesus Christ... He just trusts us to maintain it. If you have any questions or comments email webmaster@weatherforyou.com

Copyright © 2015, WeatherForYou.com LLC. All rights reserved.